When you browse on this site, cookies collect data to enhance your experience and personalize the content and advertising you see.
Visit our Privacy Policy to learn more. By continuing to use the site, you agree to this use of cookies and data.
  • In Sweden
  • List of Countries
  • For 7 days
  • Water Temperature
  • Weather Map
  • Weather Widgets
  • user-avatar
    Login

    Hourly Weather Osowie

    Today, 6 December, Friday

    Time Temperature Precipitation Wind Pressure Humidity
    00:00 -4°C° 0 mm 5 mps 754 mmHg 69%
    01:00 -4°C° 0 mm 5 mps 754 mmHg 69%
    02:00 -4°C° 0 mm 5 mps 753 mmHg 68%
    03:00 -4°C° 0 mm 5 mps 753 mmHg 68%
    04:00 -4°C° 0 mm 5 mps 752 mmHg 67%
    05:00 -4°C° 0 mm 6 mps 752 mmHg 67%
    06:00 -3°C° 0 mm 6 mps 752 mmHg 66%
    07:00 -3°C° 0 mm 6 mps 752 mmHg 65%
    08:00 -3°C° 0 mm 6 mps 752 mmHg 61%
    09:00 -2°C° 0 mm 7 mps 751 mmHg 57%
    10:00 -1°C° 0 mm 7 mps 751 mmHg 53%
    11:00 0°C° 0 mm 7 mps 751 mmHg 50%
    12:00 0°C° 0 mm 7 mps 751 mmHg 48%
    13:00 +2°C° 0 mm 7 mps 750 mmHg 46%
    14:00 +1°C° 0 mm 6 mps 750 mmHg 48%
    15:00 +1°C° 0 mm 6 mps 750 mmHg 51%
    16:00 0°C° 0 mm 5 mps 749 mmHg 54%
    17:00 -1°C° 0 mm 6 mps 749 mmHg 54%
    18:00 -1°C° 0 mm 6 mps 749 mmHg 54%
    19:00 -2°C° 0 mm 6 mps 749 mmHg 55%
    20:00 -2°C° 0 mm 6 mps 749 mmHg 55%
    21:00 -2°C° 0 mm 6 mps 748 mmHg 55%
    22:00 -2°C° 0 mm 6 mps 748 mmHg 55%
    23:00 -2°C° 0 mm 6 mps 748 mmHg 55%

    Tomorrow, 7 December, Saturday

    Time Temperature Precipitation Wind Pressure Humidity
    00:00 -2°C° 0 mm 6 mps 748 mmHg 55%
    01:00 -2°C° 0 mm 6 mps 747 mmHg 55%
    02:00 -1°C° 0 mm 6 mps 747 mmHg 56%
    03:00 -1°C° 0 mm 6 mps 746 mmHg 57%
    04:00 -1°C° 0 mm 6 mps 745 mmHg 58%
    05:00 -1°C° 0 mm 7 mps 745 mmHg 59%
    06:00 0°C° 0 mm 7 mps 745 mmHg 60%
    07:00 0°C° 0 mm 7 mps 745 mmHg 61%
    08:00 +1°C° 0 mm 8 mps 745 mmHg 67%
    09:00 +1°C° 0 mm 8 mps 745 mmHg 72%
    10:00 +1°C° 0 mm 8 mps 745 mmHg 78%
    11:00 +2°C° 0 mm 8 mps 745 mmHg 77%
    12:00 +4°C° 0 mm 8 mps 744 mmHg 76%
    13:00 +5°C° 0 mm 7 mps 744 mmHg 75%
    14:00 +5°C° 0.2 mm 7 mps 744 mmHg 80%
    15:00 +5°C° 0.2 mm 7 mps 743 mmHg 84%
    16:00 +4°C° 0.2 mm 7 mps 743 mmHg 89%
    17:00 +5°C° 0.4 mm 8 mps 744 mmHg 88%
    18:00 +5°C° 0.4 mm 8 mps 744 mmHg 87%
    19:00 +5°C° 0.4 mm 8 mps 745 mmHg 86%
    20:00 +5°C° 0.2 mm 8 mps 745 mmHg 85%
    21:00 +5°C° 0.2 mm 8 mps 745 mmHg 85%
    22:00 +5°C° 0.2 mm 8 mps 745 mmHg 85%
    23:00 +5°C° 0.3 mm 8 mps 745 mmHg 84%

    Day after tomorrow, 8 December, Sunday

    Time Temperature Precipitation Wind Pressure Humidity
    00:00 +5°C° 0.3 mm 7 mps 746 mmHg 83%
    01:00 +5°C° 0.3 mm 7 mps 746 mmHg 83%
    02:00 +4°C° 0 mm 7 mps 746 mmHg 85%
    03:00 +4°C° 0 mm 6 mps 746 mmHg 87%
    04:00 +3°C° 0 mm 5 mps 746 mmHg 89%
    05:00 +5°C° 0.2 mm 5 mps 746 mmHg 88%
    06:00 +4°C° 0.2 mm 6 mps 746 mmHg 86%
    07:00 +4°C° 0.2 mm 6 mps 746 mmHg 85%
    08:00 +4°C° 0 mm 6 mps 746 mmHg 83%
    09:00 +5°C° 0 mm 6 mps 746 mmHg 82%
    10:00 +5°C° 0 mm 7 mps 746 mmHg 80%
    11:00 +5°C° 0 mm 7 mps 746 mmHg 78%
    12:00 +5°C° 0 mm 7 mps 745 mmHg 75%
    13:00 +5°C° 0 mm 7 mps 745 mmHg 72%
    14:00 +5°C° 0 mm 7 mps 744 mmHg 72%
    15:00 +5°C° 0 mm 7 mps 744 mmHg 71%
    16:00 +5°C° 0 mm 7 mps 743 mmHg 71%
    17:00 +5°C° 0 mm 7 mps 743 mmHg 71%
    18:00 +5°C° 0 mm 8 mps 742 mmHg 72%
    19:00 +5°C° 0 mm 8 mps 742 mmHg 72%
    20:00 +5°C° 0.1 mm 8 mps 741 mmHg 75%
    21:00 +6°C° 0.1 mm 8 mps 741 mmHg 78%
    22:00 +6°C° 0.1 mm 7 mps 741 mmHg 80%
    23:00 +6°C° 0 mm 7 mps 740 mmHg 81%

    9 December, Monday

    Time Temperature Precipitation Wind Pressure Humidity
    00:00 +6°C° 0 mm 7 mps 740 mmHg 81%
    01:00 +6°C° 0 mm 7 mps 740 mmHg 81%
    02:00 +6°C° 0.3 mm 7 mps 740 mmHg 81%
    03:00 +7°C° 0.3 mm 6 mps 739 mmHg 82%
    04:00 +7°C° 0.3 mm 6 mps 739 mmHg 82%
    05:00 +7°C° 0.1 mm 6 mps 739 mmHg 80%
    06:00 +6°C° 0.1 mm 5 mps 739 mmHg 78%
    07:00 +6°C° 0.1 mm 5 mps 739 mmHg 76%
    08:00 +6°C° 0 mm 5 mps 739 mmHg 74%
    09:00 +5°C° 0 mm 6 mps 739 mmHg 73%
    10:00 +5°C° 0 mm 7 mps 739 mmHg 71%
    11:00 +5°C° 0 mm 6 mps 739 mmHg 70%
    12:00 +7°C° 0 mm 6 mps 739 mmHg 68%
    13:00 +7°C° 0 mm 6 mps 738 mmHg 66%
    14:00 +6°C° 0 mm 5 mps 738 mmHg 69%
    15:00 +6°C° 0 mm 4 mps 738 mmHg 72%
    16:00 +5°C° 0 mm 3 mps 738 mmHg 75%
    17:00 +5°C° 0 mm 3 mps 738 mmHg 76%
    18:00 +4°C° 0 mm 3 mps 738 mmHg 78%
    19:00 +4°C° 0 mm 3 mps 738 mmHg 79%
    20:00 +4°C° 0 mm 3 mps 738 mmHg 81%
    21:00 +3°C° 0 mm 4 mps 738 mmHg 82%
    22:00 +3°C° 0 mm 4 mps 738 mmHg 83%
    23:00 +3°C° 0 mm 4 mps 737 mmHg 84%

    10 December, Tuesday

    Time Temperature Precipitation Wind Pressure Humidity
    00:00 +3°C° 0 mm 4 mps 737 mmHg 85%
    01:00 +3°C° 0 mm 3 mps 737 mmHg 86%
    02:00 +3°C° 0 mm 4 mps 738 mmHg 86%
    03:00 +3°C° 0 mm 4 mps 738 mmHg 86%
    04:00 +3°C° 0 mm 4 mps 738 mmHg 85%
    05:00 +3°C° 0.1 mm 4 mps 738 mmHg 86%
    06:00 +3°C° 0.1 mm 4 mps 738 mmHg 87%
    07:00 +3°C° 0.1 mm 4 mps 739 mmHg 89%
    08:00 +2°C° 0.3 mm 5 mps 739 mmHg 89%
    09:00 +2°C° 0.3 mm 5 mps 740 mmHg 90%
    10:00 +2°C° 0.3 mm 6 mps 741 mmHg 90%
    11:00 +2°C° 0.2 mm 6 mps 741 mmHg 90%
    12:00 +2°C° 0.2 mm 7 mps 742 mmHg 90%
    13:00 +1°C° 0.2 mm 8 mps 743 mmHg 89%
    14:00 +1°C° 0.1 mm 8 mps 744 mmHg 86%
    15:00 0°C° 0.1 mm 9 mps 745 mmHg 83%
    16:00 0°C° 0.1 mm 9 mps 746 mmHg 80%
    17:00 -1°C° 0 mm 8 mps 748 mmHg 76%
    18:00 -1°C° 0 mm 8 mps 749 mmHg 72%
    19:00 -2°C° 0 mm 7 mps 750 mmHg 68%
    20:00 -2°C° 0 mm 7 mps 751 mmHg 67%
    21:00 -3°C° 0 mm 6 mps 752 mmHg 65%
    22:00 -3°C° 0 mm 6 mps 753 mmHg 63%
    23:00 -4°C° 0 mm 5 mps 753 mmHg 63%

    11 December, Wednesday

    Time Temperature Precipitation Wind Pressure Humidity
    00:00 -3°C° 0 mm 4 mps 753 mmHg 62%
    01:00 -3°C° 0 mm 4 mps 754 mmHg 62%
    02:00 -2°C° 0 mm 3 mps 754 mmHg 61%
    03:00 -2°C° 0 mm 3 mps 754 mmHg 60%
    04:00 -2°C° 0 mm 3 mps 753 mmHg 59%
    05:00 -2°C° 0 mm 3 mps 753 mmHg 58%
    06:00 -2°C° 0 mm 3 mps 753 mmHg 57%
    07:00 -2°C° 0 mm 3 mps 752 mmHg 56%
    08:00 -3°C° 0 mm 4 mps 752 mmHg 54%
    09:00 -2°C° 0 mm 5 mps 751 mmHg 52%
    10:00 -3°C° 0 mm 6 mps 751 mmHg 49%
    11:00 -2°C° 0 mm 6 mps 750 mmHg 46%
    12:00 -2°C° 0 mm 7 mps 749 mmHg 43%
    13:00 -1°C° 0 mm 7 mps 748 mmHg 41%
    14:00 -2°C° 0 mm 6 mps 748 mmHg 52%
    15:00 -2°C° 0 mm 6 mps 747 mmHg 63%
    16:00 -2°C° 0 mm 6 mps 747 mmHg 74%
    17:00 -2°C° 0.6 mm 6 mps 747 mmHg 82%
    18:00 -2°C° 0.6 mm 7 mps 746 mmHg 89%
    19:00 -2°C° 0.6 mm 7 mps 746 mmHg 96%
    20:00 -2°C° 0.3 mm 7 mps 746 mmHg 96%
    21:00 -1°C° 0.3 mm 6 mps 746 mmHg 96%
    22:00 -1°C° 0.3 mm 6 mps 746 mmHg 96%
    23:00 -1°C° 0 mm 6 mps 746 mmHg 95%
    Show more